Constanta, Romania

3:24 PM EET on February 21, 2017 (GMT +0200)
M. Kogalniceanu

Weather History for LRCK - April, 2014

Change the Weather History Date:

Wednesday, April 2, 2014

  Actual Average Record
Temperature  
Mean Temperature 46 °F -  
Max Temperature 51 °F 59 °F 66 °F (1998)
Min Temperature 41 °F 40 °F 28 °F (2005)
Degree Days  
Heating Degree Days 19    
Moisture  
Dew Point 37 °F    
Average Humidity 73    
Maximum Humidity 87    
Minimum Humidity 58    
Precipitation  
Precipitation 0.00 in - - ()
Sea Level Pressure  
Sea Level Pressure 30.03 in    
Wind  
Wind Speed 12 mph ()    
Max Wind Speed 16 mph    
Max Gust Speed -    
Visibility 6.2 miles    
Events Rain    
Averages and records for this station are not official NWS values.
T = Trace of Precipitation, MM = Missing Value Source: Averaged Metar Reports

Daily Weather History Graph

Daily Weather History Graph

Search for Another Location

Airport or City:

Trip Planner

Search our weather history database for the weather conditions in past years. The results will help you decide how hot, cold, wet, or windy it might be!

Date:

Astronomy

Apr. 02, 2014 Rise Set
Actual Time 6:46 AM EEST 7:34 PM EEST
Civil Twilight 6:16 AM EEST 8:03 PM EEST
Nautical Twilight 5:41 AM EEST 8:38 PM EEST
Astronomical Twilight 5:05 AM EEST 9:15 PM EEST
Moon 8:10 AM EEST (4/2) 10:44 PM EEST (4/2)
Length of Visible Light 13h 47m
Length of Day
12h 48m
Waxing Crescent, 8% of the Moon is Illuminated
Apr 2
Waxing Crescent
Apr 7
First Quarter
Apr 15
Full
Apr 22
Last Quarter
Apr 29
New

Hourly Weather History & Observations

Time (EEST) Temp. Windchill Dew Point Humidity Pressure Visibility Wind Dir Wind Speed Gust Speed Precip Events Conditions
12:00 AM 51.8 °F - 42.8 °F 71% 29.89 in - ENE 16.1 mph - N/A   Clear
12:30 AM 48.2 °F - 44.6 °F 87% 29.92 in - ENE 16.1 mph - N/A   Clear
1:00 AM 48.2 °F - 44.6 °F 87% 29.92 in - ENE 13.8 mph - N/A   Clear
1:30 AM 48.2 °F - 44.6 °F 87% 29.92 in - NE 11.5 mph - N/A   Clear
2:00 AM 48.2 °F - 42.8 °F 82% 29.92 in - ENE 11.5 mph - N/A   Clear
2:30 AM 48.2 °F - 42.8 °F 82% 29.92 in - ENE 9.2 mph - N/A   Clear
3:00 AM 46.4 °F 41.1 °F 41.0 °F 81% 29.95 in - NE 11.5 mph - N/A   Clear
3:30 AM 46.4 °F 39.8 °F 41.0 °F 81% 29.95 in - NE 16.1 mph - N/A   Clear
4:00 AM 46.4 °F 39.8 °F 39.2 °F 76% 29.95 in 6.2 mi ENE 16.1 mph - N/A Rain Light Rain
4:30 AM 46.4 °F 41.1 °F 41.0 °F 81% 29.95 in - NE 11.5 mph - N/A   Clear
5:00 AM 46.4 °F 40.4 °F 39.2 °F 76% 29.98 in - NE 13.8 mph - N/A   Clear
5:30 AM 44.6 °F 38.8 °F 39.2 °F 81% 29.98 in - NE 11.5 mph - N/A   Clear
6:00 AM 44.6 °F 39.7 °F 37.4 °F 76% 29.98 in - NE 9.2 mph - N/A   Clear
6:30 AM 42.8 °F 37.5 °F 37.4 °F 81% 29.98 in - ENE 9.2 mph - N/A   Clear
7:00 AM 42.8 °F 36.6 °F 35.6 °F 76% 30.01 in - ENE 11.5 mph - N/A   Clear
7:30 AM 41.0 °F 35.2 °F 37.4 °F 87% 30.01 in - NE 9.2 mph - N/A   Clear
8:00 AM 42.8 °F 37.5 °F 37.4 °F 81% 30.04 in - NE 9.2 mph - N/A   Clear
8:30 AM 42.8 °F 37.5 °F 39.2 °F 87% 30.04 in - NE 9.2 mph - N/A   Clear
9:00 AM 44.6 °F 38.8 °F 39.2 °F 81% 30.04 in - NE 11.5 mph - N/A   Clear
9:30 AM 44.6 °F 38.1 °F 37.4 °F 76% 30.06 in - ENE 13.8 mph - N/A   Clear
10:00 AM 44.6 °F 38.1 °F 35.6 °F 71% 30.06 in - ENE 13.8 mph - N/A   Clear
10:30 AM 46.4 °F 39.8 °F 37.4 °F 71% 30.06 in - NE 16.1 mph - N/A   Clear
11:00 AM 46.4 °F 39.8 °F 37.4 °F 71% 30.06 in - ENE 16.1 mph - N/A   Clear
11:30 AM 46.4 °F 39.8 °F 37.4 °F 71% 30.09 in 6.2 mi ENE 16.1 mph - N/A   Partly Cloudy
12:00 PM 46.4 °F 39.8 °F 35.6 °F 66% 30.09 in 6.2 mi ENE 16.1 mph - N/A   Partly Cloudy
12:30 PM 46.4 °F 39.8 °F 35.6 °F 66% 30.09 in 6.2 mi ENE 16.1 mph - N/A   Partly Cloudy
1:00 PM 46.4 °F 39.8 °F 35.6 °F 66% 30.09 in 6.2 mi East 16.1 mph - N/A   Partly Cloudy
1:30 PM 46.4 °F 40.4 °F 33.8 °F 62% 30.09 in - East 13.8 mph - N/A   Clear
2:00 PM 48.2 °F - 33.8 °F 58% 30.09 in - East 13.8 mph - N/A   Clear
4:00 PM 46.4 °F 40.4 °F 33.8 °F 62% 30.06 in - ENE 13.8 mph - N/A   Clear
4:30 PM 46.4 °F 40.4 °F 33.8 °F 62% 30.06 in - East 13.8 mph - N/A   Clear
5:00 PM 44.6 °F 38.1 °F 33.8 °F 66% 30.06 in - East 13.8 mph - N/A   Clear
5:30 PM 44.6 °F 38.8 °F 32.0 °F 61% 30.06 in - East 11.5 mph - N/A   Clear
6:00 PM 44.6 °F 38.1 °F 32.0 °F 61% 30.06 in - East 13.8 mph - N/A   Clear
6:30 PM 42.8 °F 36.6 °F 33.8 °F 70% 30.06 in - East 11.5 mph - N/A   Clear
7:00 PM 42.8 °F 36.6 °F 33.8 °F 70% 30.06 in - East 11.5 mph - N/A   Clear
7:30 PM 42.8 °F 36.6 °F 32.0 °F 66% 30.06 in 6.2 mi East 11.5 mph - N/A   Scattered Clouds
8:00 PM 42.8 °F 36.6 °F 32.0 °F 66% 30.06 in 6.2 mi East 11.5 mph - N/A   Mostly Cloudy
9:00 PM 42.8 °F 36.6 °F 32.0 °F 66% 30.09 in 6.2 mi East 11.5 mph - N/A   Mostly Cloudy
9:30 PM 42.8 °F 36.6 °F 33.8 °F 70% 30.09 in 6.2 mi East 11.5 mph - N/A   Mostly Cloudy
10:00 PM 42.8 °F 37.5 °F 33.8 °F 70% 30.09 in 6.2 mi East 9.2 mph - N/A   Mostly Cloudy
10:30 PM 42.8 °F 36.6 °F 32.0 °F 66% 30.09 in 6.2 mi ESE 11.5 mph - N/A   Mostly Cloudy
11:00 PM 42.8 °F 37.5 °F 32.0 °F 66% 30.09 in 6.2 mi ESE 9.2 mph - N/A   Overcast
11:30 PM 42.8 °F 37.5 °F 33.8 °F 70% 30.09 in 6.2 mi ESE 9.2 mph - N/A   Mostly Cloudy